q   2.2322099            (2000.0)            P               Q

n   0.10359328     Peri.  335.86832     +0.16989931     -0.91420513

a   4.4900204      Node   102.63314     +0.95433036     +0.05953609

e   0.5028508      Incl.   22.15079     +0.24573925     +0.40085464

P   9.51 (+/- 0.02 day)

From 284 observations 2007 Oct. 8-2008 Apr. 27, mean residual 0".76.


NAKANO

         **** Don't distribute anyone except personal use only ****

                (C) Copyright 2008 OAA/ComputingSection

write mail from CFAD0::NAKANO on 2008-08-02 06:17:22(JST).

 

    P/2007 T6 (Catalina)

Epoch 2007 Aug. 8.0 TT = JDT 2454320.5  

T 2007 Aug. 19.66611 TT                                 Nakano

q   2.2322279            (2000.0)            P               Q

n   0.10358612     Peri.  335.86909     +0.16988318     -0.91420688

a   4.4902276      Node   102.63334     +0.95433214     +0.05951945

e   0.5028698      Incl.   22.15101     +0.24574350     +0.40085311

P   9.51 (+/- 0.03 day)

From 257 observations 2007 Oct. 8-2008 Feb. 9, mean residual 0".74.

NAKANO

         **** Don't distribute anyone except personal use only ****

                (C) Copyright 2008 OAA/ComputingSection

write mail from CFAD0::NAKANO on 2008-02-15 03:48:21(JST).

 



    P/2007 T6 = 2007 TU149 (Catalina)

T 2007 Aug. 19.71068 TT                                 Nakano

q   2.2325376            (2000.0)            P               Q

n   0.10346101     Peri.  335.88684     +0.16955081     -0.91426109

a   4.4938467      Node   102.63600     +0.95436075     +0.05917801

e   0.5032012      Incl.   22.15243     +0.24586190     +0.40078001

P   9.53 (+/- 0.77 day)

From 121 observations 2007 Oct. 8-Nov. 20.



NAKANO

         **** Don't distribute anyone except personal use only ****

                (C) Copyright 2007 OAA/ComputingSection

write mail from CFAD0::NAKANO on 2007-11-30 09:05:11(JST).

 



◎P/2007 T6 = 2007 TU149の軌道と予報位置



 その後,上尾の門田健一氏から,11月3日の観測が報告されています.氏の

CCD全光度は17.4等でした.

 この彗星は,10月8日に発見された小惑星2007 TU149と次のとおり,同定で

きます.



    P/2007 T6 = 2007 TU149 (Catalina)

T 2007 Aug. 19.64935 TT                                 Nakano

q   2.2322970            (2000.0)            P               Q

n   0.10341911     Peri.  335.86087     +0.16998740     -0.91419264

a   4.4950603      Node   102.63502     +0.95432681     +0.05963471

e   0.5033889      Incl.   22.15035     +0.24569212     +0.40086846

P   9.53 (+/- 1.61 days)

From 104 observations 2007 Oct. 8-Nov. 11.

 

Date/        TT  R.A.(2000) Decl.     Delta   r     Daily motion  Mag.  Moon Age

              h    h  m       。  ,                      ,  / PA 。  m1      。

2007 Nov. 15 18  09 07.63  +19 39.4   1.970  2.344    16.1 /  69  16.7  164  .28

          16 18  09 08.69  +19 45.2   1.960  2.346    15.9 /  68  16.7  176  .38

          17 18  09 09.74  +19 51.1   1.951  2.348    15.6 /  67  16.7  171  .48

          18 18  09 10.76  +19 57.3   1.941  2.351    15.4 /  66  16.7  158  .59

          19 18  09 11.75  +20 03.6   1.932  2.353    15.2 /  65  16.6  144  .69

          20 18  09 12.73  +20 10.1   1.923  2.356    15.0 /  64  16.6  130  .79

          21 18  09 13.68  +20 16.8   1.913  2.359    14.8 /  62  16.6  116  .88

          22 18  09 14.62  +20 23.6   1.904  2.361    14.6 /  61  16.6  101  .95

          23 18  09 15.52  +20 30.7   1.895  2.364    14.4 /  60  16.6   86  .99

          24 18  09 16.41  +20 37.9   1.886  2.366    14.2 /  58  16.6   71 1.00

          25 18  09 17.27  +20 45.3   1.876  2.369    14.0 /  57  16.6   56  .98

          26 18  09 18.11  +20 52.9   1.867  2.372    13.8 /  56  16.6   41  .93

          27 18  09 18.92  +21 00.8   1.858  2.374    13.6 /  54  16.6   27  .86

          28 18  09 19.71  +21 08.8   1.850  2.377    13.5 /  52  16.6   14  .78

          29 18  09 20.48  +21 17.0   1.841  2.380    13.3 /  51  16.6    4  .68

          30 18  09 21.21  +21 25.4   1.832  2.383    13.2 /  49  16.6   14  .58

     Dec.  1 18  09 21.93  +21 34.0   1.824  2.385    13.0 /  47  16.6   26  .48

           2 18  09 22.61  +21 42.8   1.815  2.388    12.9 /  46  16.6   38  .38

           3 18  09 23.27  +21 51.8   1.807  2.391    12.8 /  44  16.6   50  .29

           4 18  09 23.91  +22 01.0   1.798  2.394    12.6 /  42  16.6   62  .21

           5 18  09 24.51  +22 10.4   1.790  2.397    12.5 /  40  16.6   74  .14

           6 18  09 25.09  +22 20.1   1.782  2.399    12.5 /  38  16.6   85  .08

           7 18  09 25.64  +22 29.9   1.774  2.402    12.4 /  36  16.6   97  .04

           8 18  09 26.17  +22 39.9   1.766  2.405    12.3 /  34  16.5  109  .01

           9 18  09 26.66  +22 50.2   1.759  2.408    12.3 /  32  16.5  121  .00

          10 18  09 27.13  +23 00.6   1.751  2.411    12.2 /  30  16.5  133  .01

          11 18  09 27.57  +23 11.3   1.744  2.414    12.2 /  27  16.5  145  .04

          12 18  09 27.97  +23 22.1   1.736  2.417    12.2 /  25  16.5  157  .09

          13 18  09 28.35  +23 33.1   1.729  2.420    12.2 /  23  16.5  168  .15

          14 18  09 28.70  +23 44.4   1.722  2.423    12.2 /  21  16.5  172  .23

          15 18  09 29.03  +23 55.8   1.715  2.426    12.3 /  19  16.5  162  .32

          16 18  09 29.32  +24 07.4   1.708  2.429    12.3 /  17  16.5  150  .43

          17 18  09 29.58  +24 19.2   1.702  2.432    12.4 /  15  16.5  136  .54

          18 18  09 29.81  +24 31.2   1.695  2.436    12.5 /  13  16.5  122  .65

          19 18  09 30.01  +24 43.3   1.689  2.439    12.5 /  11  16.5  108  .75

          20 18  09 30.18  +24 55.6   1.683  2.442    12.6 /   9  16.5   94  .85

          21 18  09 30.32  +25 08.1   1.677  2.445    12.7 /   7  16.5   79  .92

          22 18  09 30.44  +25 20.7   1.672  2.448    12.8 /   5  16.5   64  .97

          23 18  09 30.52  +25 33.5   1.666  2.451    13.0 /   3  16.5   49 1.00

          24 18  09 30.57  +25 46.4   1.661  2.455    13.1 /   1  16.5   35  .99

          25 18  09 30.59  +25 59.5   1.656  2.458    13.2 / 359  16.5   22  .96

          26 18  09 30.58  +26 12.7   1.651  2.461    13.4 / 358  16.5   11  .90

          27 18  09 30.54  +26 26.1   1.646  2.464    13.5 / 356  16.5   13  .83

          28 18  09 30.47  +26 39.6   1.641  2.468    13.6 / 354  16.5   24  .75

          29 18  09 30.37  +26 53.1   1.637  2.471    13.8 / 353  16.5   36  .65

          30 18  09 30.24  +27 06.8   1.633  2.474    13.9 / 351  16.5   48  .56

          31 18  09 30.08  +27 20.6   1.629  2.478    14.1 / 350  16.5   60  .46

2008 Jan.  1 18  09 29.89  +27 34.5   1.625  2.481    14.2 / 348  16.5   72  .37

NAKANO

         **** Don't distribute anyone except personal use only ****

                (C) Copyright 2007 OAA/ComputingSection

write mail from CFAD0::NAKANO on 2007-11-16 07:38:07(JST).

 

戻ります。